[[{"header":{"parameterUnit":"m.s-1","parameterCategory":1,"la1":30.2991,"la2":30.254,"lo1":-89.0895,"lo2":-89.0444,"dy":0.0017,"dx":0.0017,"nx":28,"ny":28,"refTime":"2025-08-27T03:00:00:Z","depth":0,"parameterNumber":2,"parameterNumberName":"U-component_of_WINDS"},"data":[0,0,0,0,0,0,0,0,0,0,0,0,0,0,0,0,0,0,0,0,0,0,0,0,0,0,0,0,0,0,0,0,0,0,0,0,0,0,0,0,0,0,0,0,0,0,0,0,0,0,0,0,0,0,0,0,0,0,-0.8979,-0.8978,0,-0.8892,-0.8891,-0.889,-0.8789,-0.8788,-0.8786,-0.8785,-0.8697,-0.8696,-0.8695,0,0,0,0,0,0,0,0,0,0,0,0,0,-0.906,-0.9059,-0.8979,-0.8978,-0.8977,-0.8892,-0.8891,-0.889,-0.879,-0.8788,-0.8786,-0.8784,-0.8697,-0.8696,-0.8695,0,0,0,0,0,0,0,0,0,0,0,0,0,-0.9004,-0.9058,-0.898,-0.8917,-0.891,-0.8893,-0.8891,-0.889,-0.879,-0.8788,-0.8785,-0.8783,-0.8697,-0.8696,-0.8695,-0.8732,0,0,-0.869,-0.869,0,0,0,0,0,0,0,0,-0.9007,-0.9001,-0.8927,-0.8921,-0.8914,-0.8849,-0.8887,-0.8837,-0.8791,-0.8836,-0.8785,-0.8782,-0.8749,-0.8744,-0.8732,-0.8728,-0.8724,-0.869,-0.8689,-0.8689,-0.8688,0,0,0,0,0,0,0,-0.9011,-0.9004,-0.8945,-0.8926,-0.8918,-0.8893,-0.8883,-0.8877,-0.8806,-0.8832,-0.8824,-0.8815,-0.8745,-0.8734,-0.8729,-0.8723,-0.869,-0.8689,-0.8688,-0.8688,-0.8744,-0.8747,0,0,0,0,0,0,-0.9024,-0.9008,-0.8948,-0.8942,-0.8956,-0.8894,-0.8882,-0.8872,-0.8806,-0.8794,-0.8817,-0.8811,-0.8737,-0.8731,-0.8726,-0.8766,-0.8689,-0.8688,-0.8687,-0.8742,-0.8745,-0.8747,0,0,0,0,0,0,-0.9027,-0.902,-0.8951,-0.8973,-0.8962,-0.8895,-0.8885,-0.8872,-0.886,-0.8795,-0.8782,-0.8818,-0.8735,-0.8728,-0.8731,-0.8761,-0.8687,-0.8686,-0.8739,-0.8743,-0.8746,-0.8845,0,0,0,0,0,0,-0.9029,-0.9021,-0.9035,-0.8974,-0.8962,-0.8958,-0.8886,-0.8872,-0.8858,-0.8849,-0.8793,-0.8782,-0.8733,-0.8734,-0.873,-0.8758,-0.8685,-0.8736,-0.8741,-0.8745,-0.8839,-0.8852,-0.8863,0,0,0,0,0,-0.9032,-0.9066,-0.9036,-0.9029,-0.8977,-0.896,-0.8953,-0.8896,-0.8861,-0.8874,-0.8832,-0.8783,-0.8758,-0.8735,-0.873,-0.8758,-0.8734,-0.874,-0.8745,-0.8834,-0.8849,-0.8862,0,0,0,0,0,0,-0.9132,-0.9057,-0.9023,-0.9038,-0.9006,-0.8943,-0.8957,-0.8914,-0.8891,-0.8884,-0.8814,-0.8803,-0.8814,-0.8786,-0.8761,-0.879,-0.8739,-0.8744,-0.8809,-0.8823,-0.8834,-0.8842,-0.8683,0,0,0,0,0,-0.9156,-0.9148,-0.9083,-0.9102,-0.9088,-0.9026,-0.9016,-0.8975,-0.8939,-0.8926,-0.8884,-0.8852,-0.8836,-0.8828,-0.881,-0.8834,-0.8821,-0.8851,-0.8863,-0.8873,-0.8878,-0.8889,-0.8902,-0.8765,-0.8765,-0.8765,0,0,-0.9205,-0.9163,-0.9162,-0.9121,-0.9092,-0.9086,-0.9015,-0.9011,-0.9006,-0.8925,-0.8926,-0.8894,-0.8853,-0.8867,-0.8871,-0.8844,-0.8912,-0.8879,-0.8888,-0.8887,-0.8896,-0.8909,-0.892,-0.8768,-0.8768,-0.8767,0,0,-0.9291,-0.9258,-0.9271,-0.9243,-0.9199,-0.9157,-0.9161,-0.9104,-0.908,-0.9079,-0.9018,-0.9011,-0.8986,-0.896,-0.8943,-0.902,-0.8975,-0.9016,-0.9078,-0.909,-0.9101,-0.911,-0.9138,-0.9149,-0.9021,-0.9021,-0.9021,0,-0.9358,-0.9346,-0.9283,-0.9284,-0.9268,-0.9193,-0.9206,-0.9182,-0.9135,-0.9126,-0.9096,-0.9063,-0.903,-0.9037,-0.9056,-0.9045,-0.9047,-0.9022,-0.9104,-0.9113,-0.912,-0.9147,-0.9157,-0.9026,-0.9026,-0.9025,-0.9025,0,-0.943,-0.9423,-0.9439,-0.9395,-0.9381,-0.9387,-0.9326,-0.9319,-0.9279,-0.9241,-0.9242,-0.92,-0.9173,-0.9171,-0.9132,-0.9173,-0.9157,-0.9117,-0.9064,-0.914,-0.9163,-0.9173,-0.9034,-0.9032,-0.9031,-0.9029,0,0,-0.9578,-0.9499,-0.9506,-0.9486,-0.9432,-0.9425,-0.9428,-0.9401,-0.9397,-0.9367,-0.9369,-0.9349,-0.9311,-0.9293,-0.925,-0.926,-0.9325,-0.9218,-0.9216,-0.924,-0.9368,-0.94,-0.9413,-0.9294,-0.9295,-0.9297,-0.9372,0,-0.9655,-0.9657,-0.96,-0.9618,-0.961,-0.9539,-0.9542,-0.951,-0.9474,-0.9463,-0.9423,-0.9411,-0.9361,-0.935,-0.9357,-0.9316,-0.935,-0.9309,-0.9296,-0.9296,-0.9309,-0.9425,-0.9458,-0.9532,-0.9381,-0.9382,-0.9383,0,-0.9746,-0.9721,-0.9738,-0.9683,-0.9678,-0.9682,-0.9653,-0.9643,-0.9605,-0.9578,-0.9557,-0.9508,-0.9508,-0.9458,-0.9457,-0.9431,-0.9422,-0.9401,-0.9402,-0.94,-0.9345,-0.9427,-0.9554,-0.9565,-0.9397,-0.9396,-0.9395,0,-0.9854,-0.9824,-0.983,-0.9814,-0.9751,-0.9755,-0.9729,-0.9688,-0.9676,-0.9651,-0.9642,-0.9617,-0.9604,-0.9586,-0.9532,-0.95,-0.9538,-0.9483,-0.9517,-0.9519,-0.9529,-0.953,-0.9658,-0.9522,-0.9522,-0.9521,-0.9521,0,-0.9947,-0.996,-0.9877,-0.9881,-0.9894,-0.9829,-0.9844,-0.9811,-0.9775,-0.9772,-0.9709,-0.9707,-0.9635,-0.9626,-0.9583,-0.959,-0.9584,-0.9563,-0.9552,-0.9569,-0.9572,-0.9563,-0.9558,-0.9524,-0.9524,-0.9523,-0.9523,0,-1.0069,-1.0014,-1.0017,-0.9956,-0.9941,-0.9954,-0.9902,-0.9903,-0.9863,-0.986,-0.9855,-0.9793,-0.9778,-0.9722,-0.9694,-0.9666,-0.9687,-0.9664,-0.97,-0.9693,-0.973,-0.9728,-0.9858,-0.9873,-0.9727,-0.9728,-0.9729,0,-1.0133,-1.0141,-1.0082,-1.0075,-1.0051,-1.0041,-1.0028,-0.9964,-0.9954,-0.9911,-0.9918,-0.9898,-0.9879,-0.9859,-0.9811,-0.979,-0.9767,-0.9814,-0.9763,-0.9781,-0.9769,-0.977,-0.9771,-0.9825,-0.9827,-0.9829,-0.983,0,-1.0252,-1.0225,-1.0208,-1.0182,-1.0169,-1.0145,-1.0118,-1.0116,-1.0046,-1.0037,-1.0021,-1.0006,-0.9977,-0.9959,-0.9929,-0.9902,-0.9855,-0.9846,-0.9853,-0.9872,-0.9893,-0.9883,-0.9731,-0.9844,-0.9842,-0.9841,-0.9841,-0.984,-1.0348,-1.0352,-1.0311,-1.0295,-1.0268,-1.0244,-1.0243,-1.0203,-1.0188,-1.016,-1.0123,-1.0112,-1.0074,-1.0029,-1.0006,-0.9997,-0.997,-0.998,-0.9983,-0.9987,-0.9996,-0.9893,-0.9991,-0.999,-0.999,-0.999,-0.9989,0,-1.0465,-1.0435,-1.042,-1.0385,-1.0372,-1.0328,-1.0296,-1.0288,-1.028,-1.0248,-1.023,-1.0212,-1.0194,-1.0145,-1.0122,-1.0124,-1.0102,-1.0121,-1.012,-1.0115,-1.002,-1.0017,-1.0139,-1.0139,-1.0139,-1.0139,-1.0139,-1.0139,-1.0524,-1.053,-1.0498,-1.0489,-1.0459,-1.0447,-1.0433,-1.0411,-1.0385,-1.0368,-1.0353,-1.0321,-1.0282,-1.0256,-1.0237,-1.0223,-1.0218,-1.0244,-1.0224,-1.0136,-1.0122,-1.0108,-1.0105,-1.0244,-1.0244,-1.032,-1.032,-1.0321]},{"header":{"parameterUnit":"m.s-1","parameterCategory":1,"la1":30.2991,"la2":30.254,"lo1":-89.0895,"lo2":-89.0444,"dy":0.0017,"dx":0.0017,"nx":28,"ny":28,"refTime":"2025-08-27T03:00:00:Z","depth":0,"parameterNumber":3,"parameterNumberName":"V-component_of_WINDS"},"data":[0,0,0,0,0,0,0,0,0,0,0,0,0,0,0,0,0,0,0,0,0,0,0,0,0,0,0,0,0,0,0,0,0,0,0,0,0,0,0,0,0,0,0,0,0,0,0,0,0,0,0,0,0,0,0,0,0,0,-0.1277,-0.1277,0,-0.1319,-0.1319,-0.132,-0.1335,-0.1335,-0.1334,-0.1334,-0.1378,-0.138,-0.1381,0,0,0,0,0,0,0,0,0,0,0,0,0,-0.1211,-0.1212,-0.1277,-0.1277,-0.1278,-0.1319,-0.1319,-0.132,-0.1335,-0.1335,-0.1334,-0.1334,-0.1378,-0.1379,-0.1381,0,0,0,0,0,0,0,0,0,0,0,0,0,-0.1245,-0.1213,-0.1277,-0.129,-0.1292,-0.1319,-0.1319,-0.132,-0.1335,-0.1335,-0.1334,-0.1334,-0.1377,-0.1379,-0.1381,-0.1398,0,0,-0.1387,-0.1388,0,0,0,0,0,0,0,0,-0.1243,-0.1248,-0.1288,-0.1289,-0.1291,-0.1321,-0.1312,-0.1346,-0.1335,-0.1319,-0.1334,-0.1334,-0.136,-0.1363,-0.1371,-0.14,-0.1402,-0.1387,-0.1389,-0.139,-0.139,0,0,0,0,0,0,0,-0.1241,-0.1246,-0.1293,-0.1288,-0.129,-0.1295,-0.1299,-0.1319,-0.134,-0.132,-0.1321,-0.1326,-0.1361,-0.1369,-0.1373,-0.1403,-0.1387,-0.1389,-0.139,-0.1391,-0.1448,-0.1448,0,0,0,0,0,0,-0.1236,-0.1244,-0.1292,-0.1295,-0.1266,-0.1296,-0.1301,-0.1312,-0.134,-0.1344,-0.1326,-0.1326,-0.1366,-0.137,-0.1374,-0.1396,-0.139,-0.1391,-0.1392,-0.1447,-0.1448,-0.1448,0,0,0,0,0,0,-0.1235,-0.124,-0.129,-0.127,-0.1276,-0.1297,-0.1309,-0.1313,-0.1322,-0.1344,-0.1348,-0.1331,-0.1366,-0.1371,-0.1392,-0.1398,-0.1392,-0.1394,-0.1447,-0.1447,-0.1448,-0.144,0,0,0,0,0,0,-0.1233,-0.124,-0.1246,-0.127,-0.1277,-0.1307,-0.131,-0.1314,-0.1325,-0.1326,-0.135,-0.1354,-0.1366,-0.1389,-0.1394,-0.14,-0.1396,-0.1447,-0.1447,-0.1448,-0.144,-0.144,-0.144,0,0,0,0,0,-0.123,-0.1242,-0.1246,-0.1252,-0.1286,-0.1307,-0.1312,-0.1326,-0.1325,-0.1332,-0.1347,-0.1353,-0.1396,-0.1391,-0.1397,-0.1404,-0.1446,-0.1447,-0.1448,-0.1439,-0.144,-0.144,0,0,0,0,0,0,-0.1219,-0.1245,-0.125,-0.127,-0.1286,-0.131,-0.1319,-0.1325,-0.1343,-0.1343,-0.1359,-0.1365,-0.1384,-0.1396,-0.139,-0.1422,-0.1422,-0.1424,-0.1413,-0.1414,-0.1414,-0.1411,-0.1397,0,0,0,0,0,-0.1218,-0.1234,-0.1256,-0.1271,-0.1279,-0.1298,-0.1308,-0.1317,-0.1335,-0.1342,-0.1358,-0.1375,-0.1393,-0.1404,-0.1421,-0.1441,-0.1447,-0.1449,-0.1449,-0.1449,-0.1451,-0.1463,-0.1464,-0.145,-0.145,-0.145,0,0,-0.1218,-0.1235,-0.1243,-0.127,-0.1283,-0.1299,-0.1303,-0.132,-0.1332,-0.1344,-0.1365,-0.1377,-0.1398,-0.1418,-0.1428,-0.1429,-0.1456,-0.145,-0.145,-0.1452,-0.1464,-0.1465,-0.1466,-0.1451,-0.1451,-0.1451,0,0,-0.1226,-0.1239,-0.1254,-0.1268,-0.1288,-0.13,-0.1304,-0.1326,-0.1335,-0.1356,-0.1365,-0.138,-0.141,-0.1424,-0.1435,-0.1448,-0.1456,-0.1454,-0.1455,-0.1467,-0.1468,-0.1469,-0.1475,-0.1476,-0.1455,-0.1455,-0.1455,0,-0.1223,-0.1247,-0.1261,-0.1277,-0.1288,-0.13,-0.1315,-0.1328,-0.1353,-0.1361,-0.1361,-0.1399,-0.1413,-0.1438,-0.1441,-0.1449,-0.1454,-0.1451,-0.1467,-0.1468,-0.1469,-0.1475,-0.1476,-0.1455,-0.1455,-0.1455,-0.1455,0,-0.1243,-0.1259,-0.1268,-0.1292,-0.1305,-0.132,-0.1337,-0.1348,-0.1356,-0.1368,-0.139,-0.1407,-0.1429,-0.1435,-0.1443,-0.1461,-0.146,-0.1463,-0.1464,-0.147,-0.1475,-0.1477,-0.1454,-0.1454,-0.1455,-0.1455,0,0,-0.1245,-0.1276,-0.1279,-0.129,-0.1314,-0.1327,-0.1344,-0.1364,-0.1374,-0.1391,-0.1405,-0.143,-0.1433,-0.1446,-0.1455,-0.1465,-0.1475,-0.1467,-0.1468,-0.1469,-0.1497,-0.1495,-0.1497,-0.148,-0.148,-0.1481,-0.1495,0,-0.1256,-0.1285,-0.1298,-0.1322,-0.1337,-0.1349,-0.1363,-0.1379,-0.1391,-0.1406,-0.1419,-0.1437,-0.1439,-0.1447,-0.1457,-0.1472,-0.1481,-0.1471,-0.1494,-0.1495,-0.149,-0.15,-0.1498,-0.1511,-0.1497,-0.1498,-0.1498,0,-0.1273,-0.129,-0.1315,-0.1337,-0.1345,-0.1357,-0.1377,-0.1391,-0.141,-0.1418,-0.1432,-0.1442,-0.146,-0.1458,-0.1484,-0.1476,-0.1486,-0.1495,-0.1496,-0.1499,-0.1497,-0.1504,-0.1515,-0.1518,-0.1501,-0.1501,-0.1501,0,-0.1273,-0.1302,-0.1321,-0.133,-0.1356,-0.1365,-0.1376,-0.1395,-0.1407,-0.1424,-0.1432,-0.1452,-0.1462,-0.1478,-0.1492,-0.149,-0.1516,-0.1516,-0.1524,-0.1524,-0.153,-0.153,-0.1544,-0.1535,-0.1535,-0.1535,-0.1535,0,-0.1285,-0.13,-0.1321,-0.1333,-0.1351,-0.1365,-0.1382,-0.1395,-0.1411,-0.1426,-0.1436,-0.145,-0.1468,-0.1484,-0.1495,-0.1515,-0.152,-0.1527,-0.153,-0.1527,-0.1526,-0.1534,-0.1534,-0.1536,-0.1535,-0.1535,-0.1535,0,-0.1288,-0.1303,-0.1324,-0.1347,-0.1353,-0.1365,-0.1385,-0.1397,-0.1409,-0.1428,-0.1433,-0.1452,-0.1472,-0.1488,-0.1513,-0.1521,-0.1542,-0.1545,-0.1535,-0.1537,-0.1545,-0.1544,-0.1566,-0.157,-0.1557,-0.1557,-0.1557,0,-0.1295,-0.1307,-0.1331,-0.1341,-0.1353,-0.1369,-0.1381,-0.1396,-0.1408,-0.1431,-0.144,-0.146,-0.1478,-0.1508,-0.1525,-0.1544,-0.1549,-0.1555,-0.1552,-0.1548,-0.155,-0.1549,-0.1551,-0.1555,-0.1555,-0.1555,-0.1555,0,-0.1306,-0.1312,-0.1329,-0.1349,-0.1363,-0.1379,-0.1395,-0.1403,-0.1421,-0.1434,-0.1454,-0.1467,-0.1493,-0.1513,-0.1535,-0.1547,-0.1555,-0.1556,-0.1559,-0.1556,-0.1551,-0.1555,-0.1537,-0.1556,-0.1556,-0.1556,-0.1556,-0.1556,-0.1311,-0.1323,-0.1342,-0.136,-0.1374,-0.1389,-0.1402,-0.1415,-0.1432,-0.1455,-0.1462,-0.1483,-0.1502,-0.1532,-0.1544,-0.1561,-0.1561,-0.1566,-0.1567,-0.1568,-0.1568,-0.1547,-0.1564,-0.1564,-0.1564,-0.1564,-0.1564,0,-0.1324,-0.1336,-0.1353,-0.1376,-0.139,-0.1395,-0.1414,-0.1426,-0.1444,-0.1461,-0.1477,-0.1501,-0.152,-0.1538,-0.1559,-0.1569,-0.1573,-0.1574,-0.1574,-0.1577,-0.1566,-0.1561,-0.157,-0.157,-0.157,-0.157,-0.157,-0.157,-0.1332,-0.1352,-0.1361,-0.1388,-0.14,-0.1421,-0.1431,-0.1445,-0.1459,-0.1484,-0.15,-0.1512,-0.1529,-0.1551,-0.157,-0.1575,-0.1582,-0.1582,-0.1588,-0.1578,-0.1577,-0.1576,-0.1573,-0.1584,-0.1584,-0.1598,-0.1598,-0.1598]}]]